When you browse on this site, cookies collect data to enhance your experience and personalize the content and advertising you see.
Visit our Privacy Policy to learn more. By continuing to use the site, you agree to this use of cookies and data.
  • In Latvia
  • List of Countries
  • For 7 days
  • Water Temperature
  • Weather Map
  • Weather Widgets
  • user-avatar
    Login

    Hourly Weather Ganja

    Today, 16 September, Monday

    Time Temperature Precipitation Wind Pressure Humidity
    00:00 +22°C° 0.1 mm 1 mps 728 mmHg 62%
    01:00 +21°C° 0.1 mm 1 mps 728 mmHg 65%
    02:00 +20°C° 0.1 mm 2 mps 728 mmHg 67%
    03:00 +20°C° 0.1 mm 2 mps 728 mmHg 70%
    04:00 +20°C° 0.3 mm 1 mps 728 mmHg 72%
    05:00 +20°C° 0.3 mm 1 mps 728 mmHg 75%
    06:00 +20°C° 0.3 mm 1 mps 729 mmHg 77%
    07:00 +20°C° 0.5 mm 2 mps 728 mmHg 73%
    08:00 +21°C° 0.5 mm 2 mps 728 mmHg 69%
    09:00 +22°C° 0.5 mm 3 mps 728 mmHg 65%
    10:00 +24°C° 0 mm 3 mps 727 mmHg 62%
    11:00 +25°C° 0 mm 4 mps 727 mmHg 59%
    12:00 +26°C° 0 mm 4 mps 726 mmHg 56%
    13:00 +27°C° 0 mm 4 mps 726 mmHg 55%
    14:00 +27°C° 0 mm 4 mps 725 mmHg 53%
    15:00 +28°C° 0 mm 4 mps 725 mmHg 51%
    16:00 +27°C° 0 mm 3 mps 724 mmHg 54%
    17:00 +26°C° 0 mm 2 mps 724 mmHg 56%
    18:00 +25°C° 0 mm 1 mps 724 mmHg 59%
    19:00 +25°C° 0 mm 1 mps 724 mmHg 62%
    20:00 +24°C° 0 mm 1 mps 724 mmHg 64%
    21:00 +23°C° 0 mm 1 mps 724 mmHg 67%
    22:00 +23°C° 0 mm 1 mps 724 mmHg 68%
    23:00 +22°C° 0 mm 1 mps 724 mmHg 70%

    Tomorrow, 17 September, Tuesday

    Time Temperature Precipitation Wind Pressure Humidity
    00:00 +22°C° 0 mm 1 mps 724 mmHg 72%
    01:00 +22°C° 0 mm 1 mps 724 mmHg 71%
    02:00 +21°C° 0 mm 2 mps 723 mmHg 71%
    03:00 +20°C° 0 mm 2 mps 723 mmHg 70%
    04:00 +20°C° 0 mm 2 mps 723 mmHg 69%
    05:00 +20°C° 0 mm 2 mps 723 mmHg 67%
    06:00 +20°C° 0 mm 2 mps 723 mmHg 66%
    07:00 +23°C° 0 mm 2 mps 723 mmHg 60%
    08:00 +25°C° 0 mm 2 mps 723 mmHg 55%
    09:00 +27°C° 0 mm 3 mps 723 mmHg 50%
    10:00 +28°C° 0 mm 2 mps 723 mmHg 47%
    11:00 +29°C° 0 mm 2 mps 722 mmHg 44%
    12:00 +30°C° 0 mm 2 mps 722 mmHg 42%
    13:00 +30°C° 0 mm 2 mps 721 mmHg 40%
    14:00 +31°C° 0 mm 2 mps 721 mmHg 38%
    15:00 +32°C° 0 mm 2 mps 721 mmHg 36%
    16:00 +30°C° 0 mm 2 mps 721 mmHg 39%
    17:00 +29°C° 0 mm 2 mps 721 mmHg 42%
    18:00 +28°C° 0 mm 2 mps 721 mmHg 45%
    19:00 +27°C° 0.1 mm 3 mps 721 mmHg 49%
    20:00 +25°C° 0.1 mm 5 mps 722 mmHg 53%
    21:00 +23°C° 0.1 mm 6 mps 723 mmHg 57%
    22:00 +22°C° 0.2 mm 5 mps 723 mmHg 59%
    23:00 +22°C° 0.2 mm 4 mps 723 mmHg 61%

    Day after tomorrow, 18 September, Wednesday

    Time Temperature Precipitation Wind Pressure Humidity
    00:00 +22°C° 0.2 mm 3 mps 724 mmHg 63%
    01:00 +21°C° 0 mm 3 mps 724 mmHg 64%
    02:00 +21°C° 0 mm 3 mps 724 mmHg 65%
    03:00 +20°C° 0 mm 3 mps 724 mmHg 67%
    04:00 +20°C° 0 mm 3 mps 724 mmHg 67%
    05:00 +20°C° 0 mm 3 mps 725 mmHg 67%
    06:00 +20°C° 0 mm 3 mps 725 mmHg 68%
    07:00 +21°C° 0 mm 3 mps 725 mmHg 63%
    08:00 +24°C° 0 mm 3 mps 726 mmHg 59%
    09:00 +25°C° 0 mm 3 mps 726 mmHg 54%
    10:00 +26°C° 0 mm 3 mps 726 mmHg 50%
    11:00 +27°C° 0 mm 3 mps 726 mmHg 46%
    12:00 +29°C° 0 mm 3 mps 726 mmHg 43%
    13:00 +29°C° 0 mm 3 mps 726 mmHg 41%
    14:00 +29°C° 0 mm 2 mps 725 mmHg 39%
    15:00 +30°C° 0 mm 1 mps 725 mmHg 38%
    16:00 +29°C° 0 mm 1 mps 725 mmHg 41%
    17:00 +28°C° 0 mm 1 mps 725 mmHg 43%
    18:00 +27°C° 0 mm 1 mps 725 mmHg 46%
    19:00 +26°C° 0 mm 1 mps 725 mmHg 48%
    20:00 +26°C° 0 mm 1 mps 726 mmHg 50%
    21:00 +25°C° 0 mm 1 mps 726 mmHg 52%
    22:00 +24°C° 0 mm 1 mps 726 mmHg 56%
    23:00 +24°C° 0 mm 2 mps 726 mmHg 61%

    19 September, Thursday

    Time Temperature Precipitation Wind Pressure Humidity
    00:00 +23°C° 0 mm 2 mps 725 mmHg 65%
    01:00 +21°C° 0 mm 2 mps 725 mmHg 65%
    02:00 +22°C° 0 mm 1 mps 725 mmHg 66%
    03:00 +22°C° 0 mm 1 mps 725 mmHg 66%
    04:00 +21°C° 0 mm 2 mps 725 mmHg 63%
    05:00 +21°C° 0 mm 2 mps 725 mmHg 61%
    06:00 +21°C° 0 mm 3 mps 725 mmHg 58%
    07:00 +24°C° 0 mm 3 mps 725 mmHg 52%
    08:00 +26°C° 0 mm 3 mps 725 mmHg 46%
    09:00 +28°C° 0 mm 3 mps 725 mmHg 39%
    10:00 +29°C° 0 mm 3 mps 725 mmHg 36%
    11:00 +30°C° 0 mm 3 mps 725 mmHg 33%
    12:00 +33°C° 0 mm 3 mps 725 mmHg 30%
    13:00 +33°C° 0 mm 3 mps 725 mmHg 27%
    14:00 +33°C° 0 mm 3 mps 725 mmHg 25%
    15:00 +34°C° 0 mm 2 mps 725 mmHg 22%
    16:00 +31°C° 0 mm 2 mps 725 mmHg 24%
    17:00 +30°C° 0 mm 2 mps 725 mmHg 26%
    18:00 +28°C° 0 mm 1 mps 725 mmHg 28%
    19:00 +27°C° 0 mm 2 mps 725 mmHg 33%
    20:00 +26°C° 0 mm 3 mps 726 mmHg 39%
    21:00 +25°C° 0 mm 4 mps 726 mmHg 44%
    22:00 +23°C° 0 mm 4 mps 726 mmHg 50%
    23:00 +22°C° 0 mm 4 mps 726 mmHg 56%

    20 September, Friday

    Time Temperature Precipitation Wind Pressure Humidity
    00:00 +21°C° 0 mm 4 mps 726 mmHg 63%
    01:00 +21°C° 0 mm 3 mps 726 mmHg 64%
    02:00 +20°C° 0 mm 3 mps 726 mmHg 65%
    03:00 +20°C° 0 mm 2 mps 725 mmHg 66%
    04:00 +19°C° 0 mm 2 mps 725 mmHg 69%
    05:00 +19°C° 0 mm 2 mps 725 mmHg 72%
    06:00 +19°C° 0 mm 1 mps 725 mmHg 75%
    07:00 +20°C° 0 mm 2 mps 725 mmHg 71%
    08:00 +21°C° 0 mm 2 mps 725 mmHg 67%
    09:00 +23°C° 0 mm 2 mps 725 mmHg 63%
    10:00 +24°C° 0 mm 2 mps 724 mmHg 62%
    11:00 +25°C° 0 mm 2 mps 724 mmHg 60%
    12:00 +25°C° 0 mm 2 mps 723 mmHg 59%
    13:00 +26°C° 0 mm 2 mps 722 mmHg 57%
    14:00 +26°C° 0 mm 2 mps 722 mmHg 55%
    15:00 +27°C° 0 mm 2 mps 721 mmHg 53%
    16:00 +26°C° 0 mm 1 mps 721 mmHg 55%
    17:00 +25°C° 0 mm 1 mps 721 mmHg 58%
    18:00 +25°C° 0 mm 1 mps 721 mmHg 61%
    19:00 +24°C° 0 mm 1 mps 721 mmHg 62%
    20:00 +22°C° 0 mm 0 mps 721 mmHg 63%
    21:00 +21°C° 0 mm 0 mps 721 mmHg 64%
    22:00 +22°C° 0 mm 1 mps 721 mmHg 67%
    23:00 +22°C° 0 mm 1 mps 721 mmHg 69%

    21 September, Saturday

    Time Temperature Precipitation Wind Pressure Humidity
    00:00 +21°C° 0 mm 1 mps 721 mmHg 71%
    01:00 +21°C° 0 mm 1 mps 721 mmHg 74%
    02:00 +21°C° 0 mm 1 mps 721 mmHg 77%
    03:00 +20°C° 0 mm 1 mps 720 mmHg 80%
    04:00 +20°C° 0 mm 1 mps 720 mmHg 80%
    05:00 +20°C° 0 mm 1 mps 720 mmHg 80%
    06:00 +20°C° 0 mm 1 mps 720 mmHg 79%
    07:00 +20°C° 0 mm 2 mps 720 mmHg 72%
    08:00 +22°C° 0 mm 3 mps 721 mmHg 64%
    09:00 +25°C° 0 mm 4 mps 721 mmHg 57%
    10:00 +26°C° 0 mm 4 mps 720 mmHg 53%
    11:00 +27°C° 0 mm 5 mps 720 mmHg 49%
    12:00 +28°C° 0 mm 5 mps 720 mmHg 46%
    13:00 +28°C° 0 mm 5 mps 719 mmHg 44%
    14:00 +28°C° 0 mm 5 mps 719 mmHg 43%
    15:00 +28°C° 0 mm 5 mps 719 mmHg 41%
    16:00 +26°C° 0 mm 6 mps 719 mmHg 43%
    17:00 +24°C° 0 mm 7 mps 719 mmHg 45%
    18:00 +22°C° 0 mm 8 mps 720 mmHg 48%
    19:00 +21°C° 0 mm 8 mps 721 mmHg 49%
    20:00 +20°C° 0 mm 8 mps 721 mmHg 49%
    21:00 +18°C° 0 mm 8 mps 722 mmHg 50%
    22:00 +18°C° 0 mm 7 mps 722 mmHg 50%
    23:00 +17°C° 0 mm 6 mps 723 mmHg 49%
    Show more